JST819 YBCS-YBSU

Flight info

Callsign JST819
Flight time 1h 41m
Altitude 37000
Route AKROM Y177 RUROX/N0352F190 W727 SUSGI W534 SEBVA
Aircraft A320/M-SDE3FGHIRWY/LB1

Departure

Time 2026-04-27 10:38
Airport Cairns International Airport (YBCS)

Arrival

Time 2026-04-27 12:20
Airport Sunshine Coast Airport (YBSU)
Time Latitude Longitude Altitude Speed Heading
2026-04-27 09:55 -16.87826 145.75315 17 ft 0 kts 68°
2026-04-27 10:27 -16.87828 145.75310 16 ft 3 kts 67°
2026-04-27 10:28 -16.87838 145.75284 16 ft 4 kts 66°
2026-04-27 10:28 -16.87850 145.75259 18 ft 3 kts 62°
2026-04-27 10:28 -16.87861 145.75239 16 ft 3 kts 56°
2026-04-27 10:28 -16.87878 145.75218 16 ft 4 kts 42°
2026-04-27 10:29 -16.87895 145.75199 16 ft 3 kts 66°
2026-04-27 10:29 -16.87897 145.75196 16 ft 0 kts 68°
2026-04-27 10:30 -16.87896 145.75196 16 ft 0 kts 68°
2026-04-27 10:31 -16.87892 145.75206 16 ft 2 kts 65°
2026-04-27 10:31 -16.87877 145.75217 16 ft 3 kts 26°
2026-04-27 10:31 -16.87847 145.75215 16 ft 5 kts 343°
2026-04-27 10:31 -16.87818 145.75204 16 ft 0 kts 337°
2026-04-27 10:32 -16.87817 145.75204 18 ft 1 kts 337°
2026-04-27 10:33 -16.87789 145.75191 16 ft 6 kts 337°
2026-04-27 10:33 -16.87745 145.75171 16 ft 8 kts 336°
2026-04-27 10:33 -16.87687 145.75145 18 ft 10 kts 336°
2026-04-27 10:33 -16.87653 145.75089 16 ft 11 kts 261°
2026-04-27 10:34 -16.87627 145.75025 18 ft 11 kts 333°
2026-04-27 10:34 -16.87548 145.74990 17 ft 13 kts 337°
2026-04-27 10:34 -16.87457 145.74949 16 ft 15 kts 337°
2026-04-27 10:34 -16.87352 145.74902 16 ft 18 kts 336°
2026-04-27 10:35 -16.87233 145.74848 19 ft 20 kts 337°
2026-04-27 10:35 -16.87117 145.74796 16 ft 16 kts 336°
2026-04-27 10:35 -16.87055 145.74754 18 ft 10 kts 303°
2026-04-27 10:35 -16.87052 145.74701 16 ft 5 kts 248°
2026-04-27 10:36 -16.87055 145.74695 16 ft 0 kts 247°
2026-04-27 10:37 -16.87074 145.74648 15 ft 14 kts 247°
2026-04-27 10:37 -16.87123 145.74599 14 ft 10 kts 159°
2026-04-27 10:37 -16.87273 145.74670 16 ft 54 kts 156°
2026-04-27 10:37 -16.87823 145.74917 18 ft 115 kts 156°
2026-04-27 10:38 -16.88712 145.75313 44 ft 158 kts 158°
2026-04-27 10:38 -16.89695 145.75754 661 ft 152 kts 154°
2026-04-27 10:38 -16.90348 145.76584 1204 ft 156 kts 99°
2026-04-27 10:38 -16.90235 145.77715 1730 ft 163 kts 71°
2026-04-27 10:39 -16.89456 145.78652 1961 ft 187 kts 28°
2026-04-27 10:39 -16.88132 145.79070 2183 ft 211 kts 17°
2026-04-27 10:39 -16.86801 145.79707 2660 ft 213 kts 41°
2026-04-27 10:39 -16.85874 145.80914 3104 ft 218 kts 68°
2026-04-27 10:40 -16.85176 145.82383 3665 ft 224 kts 66°
2026-04-27 10:40 -16.84620 145.83831 4546 ft 219 kts 88°
2026-04-27 10:40 -16.84934 145.85393 4859 ft 233 kts 126°
2026-04-27 10:40 -16.86201 145.86543 5244 ft 254 kts 150°
2026-04-27 10:41 -16.87828 145.87352 5817 ft 264 kts 156°
2026-04-27 10:41 -16.89529 145.88099 5969 ft 266 kts 156°
2026-04-27 10:41 -16.91216 145.88884 6001 ft 265 kts 154°
2026-04-27 10:41 -16.92873 145.89734 6007 ft 265 kts 152°
2026-04-27 10:42 -16.94500 145.90647 6007 ft 265 kts 150°
2026-04-27 10:42 -16.96101 145.91601 6005 ft 265 kts 149°
2026-04-27 10:42 -16.97691 145.92577 6003 ft 265 kts 149°
2026-04-27 10:42 -16.99273 145.93565 6004 ft 265 kts 148°
2026-04-27 10:43 -17.00850 145.94561 6007 ft 265 kts 148°
2026-04-27 10:43 -17.02424 145.95556 6007 ft 264 kts 148°
2026-04-27 10:43 -17.03998 145.96552 6009 ft 265 kts 148°
2026-04-27 10:43 -17.05576 145.97548 6008 ft 264 kts 148°
2026-04-27 10:44 -17.07151 145.98542 6005 ft 265 kts 148°
2026-04-27 10:44 -17.08738 145.99545 6305 ft 270 kts 148°
2026-04-27 10:44 -17.10322 146.00543 7220 ft 269 kts 148°
2026-04-27 10:44 -17.11934 146.01559 8051 ft 273 kts 148°
2026-04-27 10:45 -17.13591 146.02607 8835 ft 277 kts 148°
2026-04-27 10:45 -17.15251 146.03655 9578 ft 281 kts 148°
2026-04-27 10:45 -17.16944 146.04723 10229 ft 289 kts 149°
2026-04-27 10:45 -17.18736 146.05852 10446 ft 312 kts 149°
2026-04-27 10:46 -17.20662 146.07065 10585 ft 334 kts 149°
2026-04-27 10:46 -17.22701 146.08349 10908 ft 348 kts 149°
2026-04-27 10:46 -17.24792 146.09667 11463 ft 354 kts 149°
2026-04-27 10:46 -17.26920 146.11012 12026 ft 359 kts 149°
2026-04-27 10:47 -17.29043 146.12353 12587 ft 363 kts 150°
2026-04-27 10:47 -17.31219 146.13728 13155 ft 368 kts 150°
2026-04-27 10:47 -17.33419 146.15120 13709 ft 372 kts 150°
2026-04-27 10:47 -17.35674 146.16547 14275 ft 376 kts 150°
2026-04-27 10:48 -17.37925 146.17972 14805 ft 380 kts 150°
2026-04-27 10:48 -17.40198 146.19409 15331 ft 384 kts 151°
2026-04-27 10:48 -17.42494 146.20860 15841 ft 387 kts 151°
2026-04-27 10:48 -17.44811 146.22328 16343 ft 391 kts 151°
2026-04-27 10:49 -17.47155 146.23815 16847 ft 395 kts 151°
2026-04-27 10:49 -17.49517 146.25311 17355 ft 399 kts 152°
2026-04-27 10:49 -17.51902 146.26820 17852 ft 403 kts 152°
2026-04-27 10:49 -17.54311 146.28344 18343 ft 407 kts 152°
2026-04-27 10:50 -17.56746 146.29884 18856 ft 410 kts 152°
2026-04-27 10:50 -17.59196 146.31436 19365 ft 413 kts 152°
2026-04-27 10:50 -17.61666 146.33002 19859 ft 417 kts 152°
2026-04-27 10:50 -17.64155 146.34586 20357 ft 421 kts 152°
2026-04-27 10:51 -17.66670 146.36184 20833 ft 424 kts 152°
2026-04-27 10:51 -17.69166 146.37770 21286 ft 427 kts 152°
2026-04-27 10:51 -17.71749 146.39411 21726 ft 430 kts 152°
2026-04-27 10:51 -17.74317 146.41041 22147 ft 433 kts 152°
2026-04-27 10:52 -17.76907 146.42686 22550 ft 436 kts 152°
2026-04-27 10:52 -17.79475 146.44317 22937 ft 439 kts 152°
2026-04-27 10:52 -17.82126 146.46003 23316 ft 441 kts 151°
2026-04-27 10:52 -17.84759 146.47681 23678 ft 444 kts 152°
2026-04-27 10:53 -17.87412 146.49373 24035 ft 447 kts 152°
2026-04-27 10:53 -17.92721 146.52757 24719 ft 452 kts 152°
2026-04-27 10:53 -17.95452 146.54492 25047 ft 454 kts 152°
2026-04-27 10:54 -17.98164 146.56219 25373 ft 456 kts 152°
2026-04-27 10:54 -18.00881 146.57957 25705 ft 459 kts 151°
2026-04-27 10:54 -18.03616 146.59705 25924 ft 463 kts 152°
2026-04-27 10:54 -18.06389 146.61475 26048 ft 470 kts 152°
2026-04-27 10:55 -18.09202 146.63268 26200 ft 475 kts 152°
2026-04-27 10:55 -18.11997 146.65049 26445 ft 477 kts 152°
2026-04-27 10:55 -18.14834 146.66861 26803 ft 477 kts 152°
2026-04-27 10:55 -18.17668 146.68677 27206 ft 477 kts 152°
2026-04-27 10:56 -18.20494 146.70491 27634 ft 475 kts 152°
2026-04-27 10:56 -18.23319 146.72300 28054 ft 474 kts 152°
2026-04-27 10:56 -18.26137 146.74098 28477 ft 473 kts 152°
2026-04-27 10:56 -18.28948 146.75894 28897 ft 473 kts 152°
2026-04-27 10:57 -18.31753 146.77692 29329 ft 472 kts 152°
2026-04-27 10:57 -18.34556 146.79492 29747 ft 471 kts 152°
2026-04-27 10:57 -18.37360 146.81264 30177 ft 469 kts 153°
2026-04-27 10:57 -18.40189 146.82970 30583 ft 468 kts 154°
2026-04-27 10:58 -18.43041 146.84629 30937 ft 469 kts 155°
2026-04-27 10:58 -18.45912 146.86274 31297 ft 469 kts 155°
2026-04-27 10:58 -18.48784 146.87918 31637 ft 470 kts 155°
2026-04-27 10:58 -18.51657 146.89574 31977 ft 471 kts 155°
2026-04-27 10:59 -18.54532 146.91244 32311 ft 473 kts 155°
2026-04-27 10:59 -18.57413 146.92929 32649 ft 473 kts 155°
2026-04-27 10:59 -18.60291 146.94620 32974 ft 474 kts 155°
2026-04-27 11:00 -18.66061 146.98027 33629 ft 476 kts 155°
2026-04-27 11:00 -18.68959 146.99739 33966 ft 477 kts 155°
2026-04-27 11:00 -18.71855 147.01449 34270 ft 478 kts 155°
2026-04-27 11:00 -18.74758 147.03158 34563 ft 479 kts 155°
2026-04-27 11:01 -18.77667 147.04869 34848 ft 479 kts 155°
2026-04-27 11:01 -18.80584 147.06585 35128 ft 480 kts 155°
2026-04-27 11:01 -18.83499 147.08298 35397 ft 480 kts 155°
2026-04-27 11:01 -18.86417 147.10016 35677 ft 481 kts 155°
2026-04-27 11:02 -18.89331 147.11739 35957 ft 480 kts 155°
2026-04-27 11:02 -18.92251 147.13467 36209 ft 481 kts 155°
2026-04-27 11:02 -18.95169 147.15191 36451 ft 481 kts 155°
2026-04-27 11:02 -18.98089 147.16914 36697 ft 481 kts 155°
2026-04-27 11:03 -19.01010 147.18637 36920 ft 481 kts 156°
2026-04-27 11:03 -19.03938 147.20365 37042 ft 483 kts 156°
2026-04-27 11:03 -19.09876 147.23870 37054 ft 494 kts 155°
2026-04-27 11:04 -19.15886 147.27430 37053 ft 496 kts 155°
2026-04-27 11:04 -19.21898 147.31001 37053 ft 495 kts 155°
2026-04-27 11:05 -19.27899 147.34564 37056 ft 494 kts 155°
2026-04-27 11:05 -19.33892 147.38117 37070 ft 493 kts 155°
2026-04-27 11:06 -19.38865 147.41067 37079 ft 493 kts 155°
2026-04-27 11:06 -19.44846 147.44626 37085 ft 492 kts 155°
2026-04-27 11:07 -19.50806 147.48183 37092 ft 491 kts 155°
2026-04-27 11:07 -19.56759 147.51732 37091 ft 490 kts 155°
2026-04-27 11:08 -19.62694 147.55266 37087 ft 489 kts 155°
2026-04-27 11:08 -19.68619 147.58791 37095 ft 487 kts 155°
2026-04-27 11:09 -19.74519 147.62315 37086 ft 486 kts 155°
2026-04-27 11:09 -19.80409 147.65835 37090 ft 485 kts 155°
2026-04-27 11:10 -19.86241 147.69318 37093 ft 483 kts 155°
2026-04-27 11:10 -19.92139 147.72847 37092 ft 483 kts 155°
2026-04-27 11:11 -19.97945 147.76319 37090 ft 482 kts 155°
2026-04-27 11:11 -20.03826 147.79835 37092 ft 481 kts 155°
2026-04-27 11:12 -20.09649 147.83323 37100 ft 480 kts 155°
2026-04-27 11:12 -20.15464 147.86825 37097 ft 480 kts 155°
2026-04-27 11:13 -20.21232 147.90292 37098 ft 479 kts 155°
2026-04-27 11:13 -20.27033 147.93778 37096 ft 478 kts 155°
2026-04-27 11:14 -20.32833 147.97259 37104 ft 478 kts 155°
2026-04-27 11:14 -20.38654 148.00770 37098 ft 478 kts 155°
2026-04-27 11:15 -20.44402 148.04239 37087 ft 478 kts 155°
2026-04-27 11:15 -20.50191 148.07730 37084 ft 478 kts 155°
2026-04-27 11:16 -20.55985 148.11230 37099 ft 479 kts 155°
2026-04-27 11:16 -20.61791 148.14736 37083 ft 479 kts 155°
2026-04-27 11:17 -20.67600 148.18242 37095 ft 480 kts 155°
2026-04-27 11:17 -20.73413 148.21764 37096 ft 480 kts 155°
2026-04-27 11:18 -20.79223 148.25291 37099 ft 481 kts 155°
2026-04-27 11:18 -20.85041 148.28821 37084 ft 481 kts 156°
2026-04-27 11:19 -20.90858 148.32352 37095 ft 481 kts 156°
2026-04-27 11:19 -20.96680 148.35887 37096 ft 481 kts 156°
2026-04-27 11:20 -21.02496 148.39423 37088 ft 481 kts 156°
2026-04-27 11:20 -21.08311 148.42956 37089 ft 480 kts 156°
2026-04-27 11:21 -21.14127 148.46498 37094 ft 481 kts 156°
2026-04-27 11:21 -21.19939 148.50043 37104 ft 481 kts 156°
2026-04-27 11:22 -21.25753 148.53595 37095 ft 481 kts 156°
2026-04-27 11:22 -21.31558 148.57150 37108 ft 481 kts 156°
2026-04-27 11:23 -21.37372 148.60698 37101 ft 480 kts 156°
2026-04-27 11:23 -21.43180 148.64246 37103 ft 481 kts 156°
2026-04-27 11:24 -21.48990 148.67809 37105 ft 481 kts 156°
2026-04-27 11:24 -21.54796 148.71369 37107 ft 480 kts 156°
2026-04-27 11:25 -21.60603 148.74928 37106 ft 480 kts 156°
2026-04-27 11:25 -21.66404 148.78494 37107 ft 481 kts 156°
2026-04-27 11:26 -21.72214 148.82064 37112 ft 481 kts 157°
2026-04-27 11:26 -21.78023 148.85641 37112 ft 481 kts 156°
2026-04-27 11:27 -21.83832 148.89226 37108 ft 481 kts 156°
2026-04-27 11:27 -21.89638 148.92813 37108 ft 481 kts 157°
2026-04-27 11:28 -21.95455 148.96405 37105 ft 482 kts 156°
2026-04-27 11:28 -22.01271 149.00001 37105 ft 482 kts 156°
2026-04-27 11:29 -22.07096 149.03597 37119 ft 482 kts 157°
2026-04-27 11:29 -22.12915 149.07193 37118 ft 482 kts 157°
2026-04-27 11:30 -22.18737 149.10799 37121 ft 483 kts 157°
2026-04-27 11:30 -22.24558 149.14405 37120 ft 483 kts 157°
2026-04-27 11:31 -22.30384 149.18029 37120 ft 483 kts 157°
2026-04-27 11:31 -22.36209 149.21651 37125 ft 483 kts 157°
2026-04-27 11:32 -22.42044 149.25270 37123 ft 483 kts 157°
2026-04-27 11:32 -22.47877 149.28894 37121 ft 484 kts 157°
2026-04-27 11:33 -22.53714 149.32541 37123 ft 485 kts 157°
2026-04-27 11:33 -22.59554 149.36191 37127 ft 485 kts 157°
2026-04-27 11:34 -22.65403 149.39840 37130 ft 485 kts 157°
2026-04-27 11:34 -22.71250 149.43491 37131 ft 485 kts 156°
2026-04-27 11:35 -22.77091 149.47147 37131 ft 485 kts 157°
2026-04-27 11:35 -22.82903 149.50783 37125 ft 486 kts 156°
2026-04-27 11:36 -22.88797 149.54477 37130 ft 486 kts 156°
2026-04-27 11:36 -22.94619 149.58134 37135 ft 487 kts 156°
2026-04-27 11:37 -23.00480 149.61817 37136 ft 487 kts 156°
2026-04-27 11:37 -23.06353 149.65513 37138 ft 488 kts 156°
2026-04-27 11:38 -23.12224 149.69225 37138 ft 489 kts 156°
2026-04-27 11:38 -23.18104 149.72944 37137 ft 489 kts 156°
2026-04-27 11:39 -23.23988 149.76664 37139 ft 490 kts 156°
2026-04-27 11:39 -23.29883 149.80397 37139 ft 490 kts 156°
2026-04-27 11:40 -23.35784 149.84139 37135 ft 491 kts 156°
2026-04-27 11:40 -23.41690 149.87884 37132 ft 492 kts 156°
2026-04-27 11:41 -23.47610 149.91636 37127 ft 492 kts 156°
2026-04-27 11:41 -23.53530 149.95404 37131 ft 493 kts 156°
2026-04-27 11:42 -23.59465 149.99188 37131 ft 494 kts 156°
2026-04-27 11:42 -23.65407 150.02978 37128 ft 496 kts 156°
2026-04-27 11:43 -23.71365 150.06789 37124 ft 497 kts 156°
2026-04-27 11:43 -23.77329 150.10603 37127 ft 497 kts 156°
2026-04-27 11:44 -23.83306 150.14426 37130 ft 498 kts 156°
2026-04-27 11:44 -23.89283 150.18250 37136 ft 498 kts 156°
2026-04-27 11:45 -23.94255 150.21432 37141 ft 499 kts 156°
2026-04-27 11:45 -24.01250 150.25920 37142 ft 498 kts 155°
2026-04-27 11:46 -24.07225 150.29759 37145 ft 498 kts 156°
2026-04-27 11:46 -24.13205 150.33601 37147 ft 498 kts 156°
2026-04-27 11:47 -24.19183 150.37447 37153 ft 498 kts 155°
2026-04-27 11:47 -24.25161 150.41302 37158 ft 498 kts 155°
2026-04-27 11:48 -24.31132 150.45157 37161 ft 498 kts 155°
2026-04-27 11:48 -24.37104 150.49012 37159 ft 498 kts 155°
2026-04-27 11:49 -24.43064 150.52869 37162 ft 497 kts 155°
2026-04-27 11:49 -24.48986 150.56806 37160 ft 501 kts 149°
2026-04-27 11:50 -24.53428 150.60952 37160 ft 505 kts 142°
2026-04-27 11:50 -24.59527 150.67003 37163 ft 505 kts 142°
2026-04-27 11:51 -24.63858 150.71302 37176 ft 505 kts 142°
2026-04-27 11:52 -24.71670 150.79070 37179 ft 504 kts 141°
2026-04-27 11:52 -24.76870 150.84238 37179 ft 504 kts 141°
2026-04-27 11:53 -24.82068 150.89414 37181 ft 504 kts 141°
2026-04-27 11:53 -24.87253 150.94595 37180 ft 503 kts 141°
2026-04-27 11:54 -24.92432 150.99777 37184 ft 503 kts 141°
2026-04-27 11:54 -24.97617 151.04954 37181 ft 503 kts 141°
2026-04-27 11:55 -25.02791 151.10137 37170 ft 503 kts 141°
2026-04-27 11:55 -25.07968 151.15324 37179 ft 503 kts 141°
2026-04-27 11:56 -25.13136 151.20511 37179 ft 502 kts 141°
2026-04-27 11:56 -25.18303 151.25708 37186 ft 502 kts 141°
2026-04-27 11:57 -25.23468 151.30900 37193 ft 502 kts 141°
2026-04-27 11:57 -25.28635 151.36093 37195 ft 502 kts 141°
2026-04-27 11:58 -25.33795 151.41296 37192 ft 502 kts 140°
2026-04-27 11:58 -25.38951 151.46514 37196 ft 502 kts 140°
2026-04-27 11:59 -25.44099 151.51731 37196 ft 502 kts 140°
2026-04-27 11:59 -25.49261 151.56940 37196 ft 501 kts 140°
2026-04-27 12:00 -25.54413 151.62153 37161 ft 503 kts 140°
2026-04-27 12:00 -25.56992 151.64766 36918 ft 503 kts 140°
2026-04-27 12:00 -25.59521 151.67448 36641 ft 503 kts 135°
2026-04-27 12:00 -25.61752 151.70384 35882 ft 507 kts 130°
2026-04-27 12:01 -25.63953 151.73447 35042 ft 510 kts 129°
2026-04-27 12:01 -25.66187 151.76581 34083 ft 513 kts 129°
2026-04-27 12:01 -25.68378 151.79662 33149 ft 516 kts 129°
2026-04-27 12:01 -25.70595 151.82779 32318 ft 513 kts 129°
2026-04-27 12:02 -25.72818 151.85900 31541 ft 506 kts 128°
2026-04-27 12:02 -25.74964 151.88902 30734 ft 500 kts 128°
2026-04-27 12:02 -25.77129 151.91926 29728 ft 488 kts 128°
2026-04-27 12:02 -25.79194 151.94813 28418 ft 482 kts 128°
2026-04-27 12:03 -25.81274 151.97721 26854 ft 480 kts 128°
2026-04-27 12:03 -25.83353 152.00629 25069 ft 482 kts 128°
2026-04-27 12:03 -25.85430 152.03532 23722 ft 473 kts 128°
2026-04-27 12:03 -25.87459 152.06370 22797 ft 467 kts 128°
2026-04-27 12:04 -25.89472 152.09195 21831 ft 465 kts 129°
2026-04-27 12:04 -25.91467 152.12002 20885 ft 461 kts 128°
2026-04-27 12:04 -25.93447 152.14793 19925 ft 458 kts 128°
2026-04-27 12:04 -25.95409 152.17561 18992 ft 453 kts 128°
2026-04-27 12:05 -25.97346 152.20291 18171 ft 446 kts 128°
2026-04-27 12:05 -25.99255 152.22982 17231 ft 441 kts 128°
2026-04-27 12:05 -26.01135 152.25632 16320 ft 436 kts 128°
2026-04-27 12:05 -26.02986 152.28239 15370 ft 423 kts 128°
2026-04-27 12:06 -26.04776 152.30771 14523 ft 415 kts 129°
2026-04-27 12:06 -26.06541 152.33264 13745 ft 405 kts 128°
2026-04-27 12:06 -26.08261 152.35693 12991 ft 394 kts 128°
2026-04-27 12:06 -26.09934 152.38052 12276 ft 383 kts 128°
2026-04-27 12:07 -26.11559 152.40342 11610 ft 370 kts 128°
2026-04-27 12:07 -26.13102 152.42518 11437 ft 346 kts 128°
2026-04-27 12:07 -26.14541 152.44553 11307 ft 324 kts 127°
2026-04-27 12:07 -26.15891 152.46468 11182 ft 305 kts 127°
2026-04-27 12:08 -26.17171 152.48281 10975 ft 292 kts 127°
2026-04-27 12:08 -26.18410 152.50037 10672 ft 286 kts 128°
2026-04-27 12:08 -26.19630 152.51763 10424 ft 282 kts 128°
2026-04-27 12:08 -26.20837 152.53470 10174 ft 280 kts 128°
2026-04-27 12:09 -26.22038 152.55167 9939 ft 277 kts 128°
2026-04-27 12:09 -26.23227 152.56850 9816 ft 277 kts 127°
2026-04-27 12:09 -26.24414 152.58529 9692 ft 275 kts 127°
2026-04-27 12:09 -26.25594 152.60207 9567 ft 275 kts 127°
2026-04-27 12:10 -26.26775 152.61886 9447 ft 275 kts 127°
2026-04-27 12:10 -26.27950 152.63560 9320 ft 274 kts 127°
2026-04-27 12:10 -26.29122 152.65237 8998 ft 275 kts 126°
2026-04-27 12:10 -26.30234 152.66971 8593 ft 276 kts 124°
2026-04-27 12:11 -26.31295 152.68738 8339 ft 272 kts 123°
2026-04-27 12:11 -26.32328 152.70494 8001 ft 271 kts 123°
2026-04-27 12:11 -26.33357 152.72239 7647 ft 269 kts 123°
2026-04-27 12:11 -26.34383 152.73962 7237 ft 264 kts 123°
2026-04-27 12:12 -26.35398 152.75659 6609 ft 263 kts 124°
2026-04-27 12:12 -26.36409 152.77346 6119 ft 259 kts 124°
2026-04-27 12:12 -26.37404 152.79004 5642 ft 255 kts 124°
2026-04-27 12:12 -26.38385 152.80638 5239 ft 252 kts 124°
2026-04-27 12:13 -26.39351 152.82248 4842 ft 248 kts 124°
2026-04-27 12:13 -26.40296 152.83822 4438 ft 241 kts 124°
2026-04-27 12:13 -26.41233 152.85380 4041 ft 243 kts 124°
2026-04-27 12:13 -26.42178 152.86955 3637 ft 246 kts 124°
2026-04-27 12:14 -26.43116 152.88548 3364 ft 243 kts 121°
2026-04-27 12:14 -26.43690 152.90286 3233 ft 236 kts 107°
2026-04-27 12:14 -26.44100 152.92011 3237 ft 222 kts 107°
2026-04-27 12:14 -26.44479 152.93612 3253 ft 205 kts 108°
2026-04-27 12:15 -26.44832 152.95089 3252 ft 190 kts 110°
2026-04-27 12:15 -26.45443 152.96348 3246 ft 183 kts 131°
2026-04-27 12:15 -26.46409 152.97268 3012 ft 180 kts 142°
2026-04-27 12:15 -26.47399 152.98104 2734 ft 175 kts 142°
2026-04-27 12:16 -26.48336 152.98903 2485 ft 164 kts 143°
2026-04-27 12:16 -26.49218 152.99659 2269 ft 156 kts 143°
2026-04-27 12:16 -26.50064 153.00382 2060 ft 150 kts 145°
2026-04-27 12:16 -26.50869 153.01071 1861 ft 142 kts 145°
2026-04-27 12:17 -26.51645 153.01735 1686 ft 139 kts 146°
2026-04-27 12:17 -26.52407 153.02385 1493 ft 137 kts 146°
2026-04-27 12:17 -26.53167 153.03033 1314 ft 138 kts 146°
2026-04-27 12:17 -26.53932 153.03687 1135 ft 139 kts 146°
2026-04-27 12:18 -26.54699 153.04344 948 ft 139 kts 146°
2026-04-27 12:18 -26.55466 153.05002 763 ft 139 kts 146°
2026-04-27 12:18 -26.56224 153.05669 579 ft 139 kts 144°
2026-04-27 12:18 -26.56986 153.06334 411 ft 139 kts 146°
2026-04-27 12:19 -26.57761 153.06980 211 ft 139 kts 145°
2026-04-27 12:19 -26.58529 153.07640 44 ft 139 kts 145°
2026-04-27 12:19 -26.59228 153.08234 21 ft 104 kts 142°
2026-04-27 12:19 -26.59667 153.08609 24 ft 55 kts 142°
2026-04-27 12:20 -26.59889 153.08797 25 ft 37 kts 142°
2026-04-27 12:20 -26.60032 153.08918 22 ft 11 kts 143°
2026-04-27 12:20 -26.60104 153.08893 21 ft 12 kts 230°
2026-04-27 12:20 -26.60145 153.08836 21 ft 8 kts 230°
2026-04-27 12:21 -26.60202 153.08839 21 ft 10 kts 146°
2026-04-27 12:21 -26.60270 153.08893 21 ft 14 kts 143°
2026-04-27 12:21 -26.60355 153.08964 21 ft 17 kts 143°
2026-04-27 12:21 -26.60442 153.09040 21 ft 12 kts 143°
2026-04-27 12:22 -26.60497 153.09077 21 ft 9 kts 169°
2026-04-27 12:22 -26.60522 153.09038 21 ft 6 kts 282°
2026-04-27 12:22 -26.60488 153.09000 24 ft 8 kts 322°
2026-04-27 12:22 -26.60453 153.08969 21 ft 2 kts 316°
2026-04-27 12:23 -26.60456 153.08953 21 ft 3 kts 251°
2026-04-27 12:23 -26.60470 153.08927 21 ft 4 kts 234°
2026-04-27 12:23 -26.60474 153.08922 22 ft 0 kts 233°
2026-04-27 12:24 -26.60478 153.08917 23 ft 0 kts 233°
2026-04-27 12:24 -26.60478 153.08916 21 ft 0 kts 233°